Location: Newark
(52.9500°N, 5.9333°E)
Time: 11:15:27
(UTC+00:00)

Envisat - Visible Passes

Search period start: 20 November 2019 00:00
Search period end: 30 November 2019 00:00
Orbit: 764 x 766 km, 98.1° (Epoch: 20 November)

Date Brightness Start Highest point End Pass type
(mag) Time Alt. Az. Time Alt. Az. Time Alt. Az.
20 Nov 5.8 05:23:01 10° NE 05:26:47 20° E 05:30:30 10° SE visible
20 Nov 3.2 16:43:09 10° SE 16:48:01 47° ENE 16:52:53 10° N visible
20 Nov 4.8 18:22:44 10° SSW 18:27:14 31° W 18:31:45 10° NNW visible
21 Nov 6.5 04:49:01 10° ENE 04:49:25 10° E 04:49:49 10° E visible
21 Nov 3.7 06:24:29 10° NNE 06:29:33 60° E 06:34:34 10° S visible
21 Nov 3.9 16:07:19 10° ESE 16:11:31 27° ENE 16:15:44 10° N visible
21 Nov 3.6 17:45:13 10° S 17:50:14 59° W 17:55:17 10° NNW visible
22 Nov 5.0 05:48:00 10° NNE 05:52:33 31° E 05:57:03 10° SSE visible
22 Nov 2.9 17:08:21 10° SSE 17:13:25 74° ENE 17:18:32 10° NNW visible
22 Nov 5.5 18:49:19 10° SW 18:53:01 20° W 18:56:43 10° NW visible
23 Nov 6.0 05:12:06 10° NE 05:15:21 17° E 05:18:35 10° SE visible
23 Nov 3.4 16:32:06 10° SE 16:36:48 40° ENE 16:41:31 10° N visible
23 Nov 4.5 18:11:10 10° SSW 18:15:53 37° W 18:20:37 10° NNW visible
24 Nov 4.1 06:13:15 10° NNE 06:18:13 50° E 06:23:09 10° S visible
24 Nov 3.2 17:33:51 10° S 17:38:56 72° WSW 17:44:02 10° NNW visible
24 Nov 6.1 19:16:47 10° WSW 19:18:54 12° W 19:21:01 10° WNW visible
25 Nov 5.4 05:36:54 10° NE 05:41:10 26° E 05:45:24 10° SSE visible
25 Nov 3.0 16:57:10 10° SSE 17:02:10 61° ENE 17:07:12 10° N visible
25 Nov 5.2 18:37:32 10° SW 18:41:37 24° W 18:45:43 10° NW visible
26 Nov 6.1 05:01:21 10° NE 05:03:54 14° E 05:06:27 10° ESE visible
26 Nov 3.6 16:21:05 10° SE 16:25:36 33° ENE 16:30:08 10° N visible
26 Nov 4.1 17:59:40 10° S 18:04:31 45° W 18:09:26 10° NNW visible
27 Nov 4.5 06:02:04 10° NNE 06:06:53 41° E 06:11:40 10° SSE visible
27 Nov 3.0 17:22:33 10° SSE 17:27:38 86° WSW 17:32:46 10° NNW visible
27 Nov 5.9 19:04:30 10° WSW 19:07:27 15° W 19:10:24 10° NW visible
28 Nov 5.6 05:25:51 10° NE 05:29:47 22° E 05:33:39 10° SE visible
28 Nov 3.1 16:46:02 10° SE 16:50:57 51° ENE 16:55:52 10° N visible
28 Nov 4.9 18:25:50 10° SSW 18:30:13 29° W 18:34:38 10° NNW visible
29 Nov 6.3 04:51:01 10° ENE 04:52:27 11° E 04:53:52 10° E visible
29 Nov 3.6 06:27:25 10° NNE 06:32:31 65° ESE 06:37:33 10° S visible
29 Nov 3.8 16:10:08 10° ESE 16:14:25 28° ENE 16:18:44 10° N visible
29 Nov 3.7 17:48:12 10° S 17:53:12 55° W 17:58:13 10° NNW visible
